| time (UTC) | temp C | wind direction | speed KPH | gust KPH | rain 1hr cm | rain 24hr cm | rain mn cm | humidity % | barometer mb |
| 20260510120037 | 11 | 0 | 0.0 | 3.2 | 0.00 | 0.10 | 0.03 | 96 | 1012.5 |
| 20260510114536 | 11 | 0 | 1.6 | 3.2 | 0.00 | 0.10 | 0.03 | 96 | 1012.2 |
| 20260510113045 | 11 | 141 | 0.0 | 1.6 | 0.00 | 0.10 | 0.03 | 96 | 1012.1 |
| 20260510111552 | 10 | 0 | 0.0 | 3.2 | 0.00 | 0.10 | 0.03 | 96 | 1011.9 |
| 20260510110042 | 10 | 141 | 0.0 | 4.8 | 0.00 | 0.10 | 0.03 | 96 | 1011.9 |
| 20260510104547 | 10 | 145 | 1.6 | 4.8 | 0.00 | 0.10 | 0.03 | 96 | 1011.8 |
| 20260510103041 | 10 | 0 | 0.0 | 1.6 | 0.00 | 0.10 | 0.03 | 95 | 1011.5 |
| 20260510101543 | 10 | 0 | 0.0 | 0.0 | 0.03 | 0.10 | 0.03 | 95 | 1011.4 |
| 20260510100042 | 9 | 138 | 0.0 | 1.6 | 0.03 | 0.10 | 0.03 | 95 | 1011.2 |
| 20260510094538 | 9 | 136 | 0.0 | 3.2 | 0.03 | 0.10 | 0.03 | 95 | 1011.3 |
| 20260510093043 | 9 | 150 | 0.0 | 3.2 | 0.03 | 0.10 | 0.03 | 95 | 1011.1 |
| 20260510091537 | 9 | 146 | 0.0 | 3.2 | 0.00 | 0.08 | 0.00 | 95 | 1010.8 |
| 20260510090049 | 9 | 0 | 0.0 | 6.4 | 0.00 | 0.08 | 0.00 | 95 | 1011.1 |
| 20260510084549 | 9 | 182 | 1.6 | 9.7 | 0.00 | 0.08 | 0.00 | 95 | 1011.2 |
| 20260510083047 | 9 | 146 | 4.8 | 14.5 | 0.00 | 0.08 | 0.00 | 95 | 1010.8 |
| 20260510081556 | 8 | 175 | 8.0 | 20.9 | 0.00 | 0.08 | 0.00 | 96 | 1011.0 |
| 20260510080037 | 8 | 0 | 0.0 | 0.0 | 0.00 | 0.08 | 0.00 | 94 | 1010.5 |
| 20260510074553 | 8 | 0 | 0.0 | 0.0 | 0.00 | 0.08 | 0.00 | 95 | 1010.4 |
| 20260510073054 | 9 | 0 | 0.0 | 3.2 | 0.00 | 0.08 | 0.00 | 95 | 1010.4 |
| 20260510071539 | 9 | 0 | 0.0 | 0.0 | 0.00 | 0.08 | 0.00 | 95 | 1010.3 |
| 20260510070041 | 9 | 0 | 0.0 | 1.6 | 0.00 | 0.08 | 0.00 | 95 | 1010.1 |
| 20260510064550 | 8 | 145 | 0.0 | 0.0 | 0.00 | 0.08 | 0.00 | 95 | 1009.9 |
| 20260510063045 | 8 | 0 | 0.0 | 0.0 | 0.00 | 0.08 | 0.00 | 94 | 1009.9 |
| 20260510061547 | 8 | 0 | 0.0 | 0.0 | 0.00 | 0.08 | 0.00 | 94 | 1010.0 |
| 20260510060048 | 9 | 0 | 0.0 | 1.6 | 0.00 | 0.08 | 0.00 | 95 | 1010.1 |
| 20260510054540 | 8 | 0 | 0.0 | 0.0 | 0.00 | 0.08 | 0.00 | 95 | 1010.2 |
| 20260510053046 | 8 | 0 | 0.0 | 0.0 | 0.00 | 0.08 | 0.00 | 94 | 1010.4 |
| 20260510051550 | 8 | 0 | 0.0 | 0.0 | 0.00 | 0.08 | 0.00 | 94 | 1010.5 |
| 20260510050053 | 8 | 0 | 0.0 | 0.0 | 0.00 | 0.08 | 0.00 | 94 | 1010.4 |
| 20260510044553 | 9 | 0 | 0.0 | 0.0 | 0.00 | 0.08 | 0.00 | 94 | 1010.5 |
| 20260510043051 | 8 | 0 | 0.0 | 0.0 | 0.00 | 0.08 | 0.00 | 93 | 1010.7 |
| 20260510041537 | 9 | 0 | 0.0 | 0.0 | 0.00 | 0.08 | 0.00 | 93 | 1010.7 |
| 20260510040048 | 9 | 0 | 0.0 | 0.0 | 0.00 | 0.08 | 0.00 | 93 | 1010.8 |
| 20260510034544 | 9 | 0 | 0.0 | 0.0 | 0.00 | 0.08 | 0.08 | 93 | 1010.8 |
| 20260510033056 | 10 | 0 | 0.0 | 0.0 | 0.00 | 0.08 | 0.08 | 93 | 1010.7 |
| 20260510031541 | 10 | 0 | 0.0 | 0.0 | 0.00 | 0.08 | 0.08 | 94 | 1010.6 |
| 20260510030100 | 10 | 0 | 0.0 | 0.0 | 0.00 | 0.08 | 0.08 | 93 | 1010.4 |
| 20260510024543 | 10 | 0 | 0.0 | 0.0 | 0.00 | 0.08 | 0.08 | 92 | 1010.2 |
| 20260510023041 | 10 | 0 | 0.0 | 0.0 | 0.00 | 0.08 | 0.08 | 93 | 1010.4 |
| 20260510021544 | 10 | 0 | 0.0 | 0.0 | 0.00 | 0.08 | 0.08 | 92 | 1010.3 |
| 20260510020047 | 10 | 0 | 0.0 | 1.6 | 0.00 | 0.08 | 0.08 | 92 | 1010.2 |
| 20260510014545 | 10 | 0 | 0.0 | 0.0 | 0.00 | 0.08 | 0.08 | 92 | 1010.2 |
| 20260510013044 | 11 | 0 | 0.0 | 0.0 | 0.00 | 0.08 | 0.08 | 91 | 1010.1 |
| 20260510011542 | 11 | 0 | 0.0 | 0.0 | 0.00 | 0.08 | 0.08 | 90 | 1010.2 |
| 20260510010041 | 11 | 0 | 0.0 | 0.0 | 0.00 | 0.08 | 0.08 | 89 | 1009.9 |
| 20260510004541 | 12 | 0 | 0.0 | 0.0 | 0.00 | 0.08 | 0.08 | 89 | 1009.8 |
| 20260510003046 | 12 | 0 | 0.0 | 0.0 | 0.00 | 0.08 | 0.08 | 87 | 1009.8 |
| 20260510001544 | 12 | 0 | 0.0 | 1.6 | 0.00 | 0.08 | 0.08 | 86 | 1009.6 |
| 20260510000049 | 13 | 0 | 0.0 | 1.6 | 0.00 | 0.08 | 0.08 | 84 | 1009.8 |
| 20260509234551 | 13 | 0 | 0.0 | 1.6 | 0.00 | 0.08 | 0.08 | 83 | 1009.7 |
| 20260509233043 | 14 | 0 | 0.0 | 1.6 | 0.00 | 0.08 | 0.08 | 83 | 1009.8 |
| 20260509231539 | 14 | 154 | 0.0 | 4.8 | 0.00 | 0.08 | 0.08 | 81 | 1009.8 |
| 20260509230038 | 15 | 160 | 3.2 | 6.4 | 0.00 | 0.08 | 0.08 | 79 | 1009.7 |
| 20260509224538 | 15 | 146 | 0.0 | 6.4 | 0.00 | 0.08 | 0.08 | 81 | 1009.7 |
| 20260509223044 | 15 | 148 | 1.6 | 8.0 | 0.00 | 0.08 | 0.08 | 83 | 1009.7 |
| 20260509221538 | 14 | 134 | 1.6 | 6.4 | 0.00 | 0.08 | 0.08 | 86 | 1009.8 |
| 20260509220047 | 13 | 179 | 3.2 | 8.0 | 0.00 | 0.08 | 0.08 | 85 | 1009.7 |
| 20260509214549 | 13 | 191 | 3.2 | 8.0 | 0.00 | 0.08 | 0.08 | 86 | 1009.7 |
| 20260509213039 | 13 | 162 | 3.2 | 6.4 | 0.00 | 0.08 | 0.08 | 85 | 1009.7 |
| 20260509211534 | 13 | 163 | 1.6 | 3.2 | 0.00 | 0.08 | 0.08 | 85 | 1009.7 |
| 20260509210036 | 13 | 160 | 0.0 | 4.8 | 0.00 | 0.08 | 0.08 | 84 | 1009.7 |
| 20260509204541 | 13 | 143 | 1.6 | 4.8 | 0.00 | 0.08 | 0.08 | 83 | 1009.8 |
| 20260509203047 | 13 | 0 | 0.0 | 4.8 | 0.00 | 0.08 | 0.08 | 83 | 1009.8 |
| 20260509201552 | 14 | 150 | 1.6 | 8.0 | 0.00 | 0.08 | 0.08 | 84 | 1009.7 |
| 20260509200057 | 13 | 149 | 3.2 | 12.9 | 0.00 | 0.08 | 0.08 | 85 | 1009.7 |
| 20260509194543 | 13 | 137 | 3.2 | 8.0 | 0.05 | 0.08 | 0.08 | 85 | 1009.8 |
| 20260509193113 | 13 | 167 | 4.8 | 11.3 | 0.05 | 0.08 | 0.08 | 87 | 1010.0 |
| 20260509191541 | 13 | 151 | 4.8 | 8.0 | 0.05 | 0.08 | 0.08 | 88 | 1010.2 |
| 20260509190040 | 13 | 155 | 4.8 | 9.7 | 0.05 | 0.08 | 0.08 | 86 | 1010.4 |
| 20260509184541 | 13 | 143 | 6.4 | 12.9 | 0.00 | 0.03 | 0.03 | 85 | 1010.7 |
| 20260509183043 | 13 | 156 | 6.4 | 11.3 | 0.00 | 0.03 | 0.03 | 83 | 1010.7 |
| 20260509181546 | 13 | 145 | 6.4 | 9.7 | 0.00 | 0.03 | 0.03 | 82 | 1010.8 |
| 20260509180039 | 13 | 135 | 6.4 | 11.3 | 0.00 | 0.03 | 0.03 | 83 | 1010.9 |
| 20260509174540 | 13 | 134 | 4.8 | 11.3 | 0.00 | 0.03 | 0.03 | 82 | 1011.0 |
| 20260509173043 | 13 | 162 | 8.0 | 12.9 | 0.00 | 0.03 | 0.03 | 83 | 1011.2 |
| 20260509171553 | 14 | 118 | 4.8 | 8.0 | 0.00 | 0.03 | 0.03 | 79 | 1011.0 |
| 20260509170044 | 14 | 138 | 3.2 | 6.4 | 0.00 | 0.03 | 0.03 | 81 | 1010.7 |
| 20260509164540 | 14 | 137 | 3.2 | 8.0 | 0.03 | 0.03 | 0.03 | 82 | 1010.8 |
| 20260509163039 | 14 | 120 | 3.2 | 8.0 | 0.03 | 0.03 | 0.03 | 83 | 1010.9 |
| 20260509161536 | 14 | 126 | 3.2 | 6.4 | 0.03 | 0.03 | 0.03 | 82 | 1011.0 |
| 20260509160044 | 14 | 129 | 1.6 | 9.7 | 0.03 | 0.03 | 0.03 | 79 | 1011.4 |
| 20260509154546 | 15 | 129 | 1.6 | 6.4 | 0.00 | 0.00 | 0.00 | 77 | 1011.9 |
| 20260509153041 | 15 | 113 | 3.2 | 8.0 | 0.00 | 0.00 | 0.00 | 77 | 1011.8 |
| 20260509151539 | 16 | 133 | 3.2 | 8.0 | 0.00 | 0.00 | 0.00 | 75 | 1011.9 |
| 20260509150046 | 16 | 126 | 3.2 | 9.7 | 0.00 | 0.00 | 0.00 | 73 | 1011.8 |
| 20260509144556 | 16 | 0 | 1.6 | 4.8 | 0.00 | 0.00 | 0.00 | 72 | 1011.8 |
| 20260509143048 | 16 | 0 | 3.2 | 11.3 | 0.00 | 0.00 | 0.00 | 72 | 1011.6 |
| 20260509141544 | 16 | 123 | 6.4 | 16.1 | 0.00 | 0.00 | 0.00 | 72 | 1011.5 |
| 20260509140039 | 15 | 115 | 3.2 | 11.3 | 0.00 | 0.00 | 0.00 | 75 | 1011.2 |
| 20260509134537 | 15 | 43 | 3.2 | 11.3 | 0.00 | 0.00 | 0.00 | 76 | 1011.3 |
| 20260509133038 | 15 | 107 | 1.6 | 16.1 | 0.00 | 0.00 | 0.00 | 77 | 1011.3 |
| 20260509131542 | 14 | 56 | 3.2 | 14.5 | 0.00 | 0.00 | 0.00 | 77 | 1011.2 |
| 20260509130038 | 14 | 343 | 3.2 | 16.1 | 0.00 | 0.00 | 0.00 | 78 | 1011.3 |
| 20260509124552 | 14 | 343 | 0.0 | 11.3 | 0.00 | 0.00 | 0.00 | 79 | 1011.3 |
| 20260509123039 | 13 | 0 | 0.0 | 11.3 | 0.00 | 0.00 | 0.00 | 80 | 1011.4 |
| 20260509121547 | 13 | 0 | 0.0 | 8.0 | 0.00 | 0.00 | 0.00 | 80 | 1011.5 |